• In Russia
  • List of Countries
  • For 7 days
  • Water Temperature
  • Satellite Maps
  • Weather Map
  • Weather Widgets
  • user-avatar
    Login

    Hourly Weather Mayrhofen

    Today, 27 March, Monday

    Time Temperature Precipitation Wind Pressure Humidity
    00:00 -3°C° 0 mm 1 mps 617 mmHg 95%
    01:00 -4°C° 0 mm 1 mps 617 mmHg 95%
    02:00 -4°C° 0 mm 1 mps 617 mmHg 94%
    03:00 -3°C° 0 mm 1 mps 617 mmHg 94%
    04:00 -3°C° 0 mm 1 mps 617 mmHg 94%
    05:00 -3°C° 0 mm 1 mps 618 mmHg 92%
    06:00 -2°C° 0 mm 1 mps 618 mmHg 91%
    07:00 -1°C° 0 mm 1 mps 618 mmHg 89%
    08:00 +1°C° 0 mm 1 mps 619 mmHg 83%
    09:00 +4°C° 0 mm 1 mps 620 mmHg 76%
    10:00 +6°C° 0 mm 1 mps 621 mmHg 70%
    11:00 +7°C° 0 mm 1 mps 621 mmHg 67%
    12:00 +8°C° 0 mm 1 mps 621 mmHg 64%
    13:00 +9°C° 0 mm 1 mps 621 mmHg 61%
    14:00 +9°C° 0 mm 1 mps 621 mmHg 63%
    15:00 +8°C° 0 mm 1 mps 621 mmHg 66%
    16:00 +8°C° 0 mm 1 mps 620 mmHg 68%
    17:00 +5°C° 0 mm 1 mps 619 mmHg 76%
    18:00 0°C° 0 mm 0 mps 617 mmHg 85%
    19:00 -4°C° 0 mm 0 mps 616 mmHg 93%
    20:00 -4°C° 0 mm 0 mps 616 mmHg 93%
    21:00 -2°C° 0 mm 1 mps 617 mmHg 93%
    22:00 -2°C° 0 mm 1 mps 617 mmHg 93%
    23:00 -2°C° 0 mm 1 mps 617 mmHg 92%

    Tomorrow, 28 March, Tuesday

    Time Temperature Precipitation Wind Pressure Humidity
    00:00 -2°C° 0 mm 1 mps 617 mmHg 92%
    01:00 -2°C° 0 mm 1 mps 617 mmHg 91%
    02:00 -2°C° 0 mm 1 mps 617 mmHg 91%
    03:00 -3°C° 0 mm 1 mps 617 mmHg 91%
    04:00 -3°C° 0 mm 1 mps 617 mmHg 90%
    05:00 -2°C° 0 mm 1 mps 617 mmHg 88%
    06:00 -1°C° 0 mm 1 mps 618 mmHg 86%
    07:00 0°C° 0 mm 1 mps 618 mmHg 84%
    08:00 +2°C° 0 mm 1 mps 619 mmHg 78%
    09:00 +5°C° 0 mm 1 mps 621 mmHg 72%
    10:00 +8°C° 0 mm 1 mps 622 mmHg 67%
    11:00 +8°C° 0 mm 1 mps 622 mmHg 65%
    12:00 +9°C° 0 mm 1 mps 622 mmHg 64%
    13:00 +9°C° 0 mm 1 mps 622 mmHg 62%
    14:00 +9°C° 0 mm 1 mps 622 mmHg 66%
    15:00 +9°C° 0 mm 1 mps 621 mmHg 69%
    16:00 +8°C° 0 mm 1 mps 621 mmHg 73%
    17:00 +6°C° 0 mm 1 mps 621 mmHg 80%
    18:00 +5°C° 0 mm 1 mps 620 mmHg 86%
    19:00 +3°C° 0 mm 1 mps 620 mmHg 93%
    20:00 +2°C° 0 mm 1 mps 620 mmHg 94%
    21:00 +2°C° 0 mm 1 mps 620 mmHg 95%
    22:00 +1°C° 0 mm 1 mps 620 mmHg 95%
    23:00 +1°C° 0 mm 1 mps 620 mmHg 95%

    Day after tomorrow, 29 March, Wednesday

    Time Temperature Precipitation Wind Pressure Humidity
    00:00 +1°C° 0 mm 1 mps 620 mmHg 95%
    01:00 +1°C° 0 mm 1 mps 620 mmHg 95%
    02:00 +1°C° 0 mm 1 mps 620 mmHg 95%
    03:00 +1°C° 0 mm 1 mps 620 mmHg 95%
    04:00 +1°C° 0 mm 1 mps 620 mmHg 95%
    05:00 +1°C° 0 mm 1 mps 621 mmHg 94%
    06:00 +2°C° 0 mm 1 mps 621 mmHg 93%
    07:00 +2°C° 0 mm 1 mps 622 mmHg 92%
    08:00 +4°C° 0 mm 1 mps 622 mmHg 85%
    09:00 +5°C° 0 mm 1 mps 623 mmHg 79%
    10:00 +7°C° 0 mm 1 mps 623 mmHg 73%
    11:00 +8°C° 0 mm 1 mps 623 mmHg 70%
    12:00 +9°C° 0 mm 1 mps 623 mmHg 68%
    13:00 +10°C° 0 mm 1 mps 623 mmHg 66%
    14:00 +10°C° 0 mm 1 mps 623 mmHg 67%
    15:00 +9°C° 0 mm 1 mps 623 mmHg 68%
    16:00 +9°C° 0 mm 1 mps 623 mmHg 70%
    17:00 +7°C° 0 mm 1 mps 622 mmHg 78%
    18:00 +5°C° 0 mm 1 mps 621 mmHg 85%
    19:00 +3°C° 0 mm 1 mps 621 mmHg 93%
    20:00 +3°C° 0 mm 1 mps 621 mmHg 94%
    21:00 +3°C° 0 mm 1 mps 622 mmHg 95%
    22:00 +3°C° 0 mm 1 mps 622 mmHg 95%
    23:00 +3°C° 0 mm 1 mps 622 mmHg 95%

    30 March, Thursday

    Time Temperature Precipitation Wind Pressure Humidity
    00:00 +2°C° 0 mm 1 mps 622 mmHg 95%
    01:00 +1°C° 0 mm 1 mps 621 mmHg 96%
    02:00 +1°C° 0 mm 1 mps 621 mmHg 95%
    03:00 0°C° 0 mm 1 mps 621 mmHg 95%
    04:00 -1°C° 0 mm 1 mps 620 mmHg 94%
    05:00 0°C° 0 mm 1 mps 621 mmHg 91%
    06:00 +1°C° 0 mm 1 mps 621 mmHg 88%
    07:00 +1°C° 0 mm 0 mps 622 mmHg 85%
    08:00 +3°C° 0 mm 0 mps 622 mmHg 76%
    09:00 +6°C° 0 mm 0 mps 623 mmHg 68%
    10:00 +9°C° 0 mm 0 mps 624 mmHg 60%
    11:00 +10°C° 0 mm 1 mps 624 mmHg 57%
    12:00 +11°C° 0 mm 1 mps 624 mmHg 55%
    13:00 +12°C° 0 mm 1 mps 624 mmHg 52%
    14:00 +12°C° 0 mm 1 mps 624 mmHg 54%
    15:00 +12°C° 0 mm 1 mps 624 mmHg 56%
    16:00 +11°C° 0 mm 1 mps 623 mmHg 59%
    17:00 +8°C° 0 mm 1 mps 622 mmHg 68%
    18:00 +6°C° 0 mm 1 mps 621 mmHg 78%
    19:00 +3°C° 0 mm 1 mps 620 mmHg 88%
    20:00 +3°C° 0 mm 1 mps 620 mmHg 89%
    21:00 +2°C° 0 mm 1 mps 620 mmHg 89%
    22:00 +2°C° 0 mm 1 mps 621 mmHg 89%
    23:00 +2°C° 0 mm 1 mps 621 mmHg 89%

    31 March, Friday

    Time Temperature Precipitation Wind Pressure Humidity
    00:00 +1°C° 0 mm 2 mps 620 mmHg 90%
    01:00 +1°C° 0 mm 2 mps 620 mmHg 90%
    02:00 +1°C° 0 mm 2 mps 620 mmHg 91%
    03:00 +1°C° 0 mm 2 mps 620 mmHg 91%
    04:00 +1°C° 0 mm 2 mps 620 mmHg 92%
    05:00 +1°C° 0 mm 2 mps 620 mmHg 90%
    06:00 +1°C° 0 mm 2 mps 620 mmHg 89%
    07:00 +2°C° 0 mm 2 mps 620 mmHg 88%
    08:00 +4°C° 0 mm 2 mps 620 mmHg 78%
    09:00 +6°C° 0 mm 2 mps 621 mmHg 68%
    10:00 +9°C° 0 mm 2 mps 622 mmHg 58%
    11:00 +10°C° 0 mm 2 mps 622 mmHg 54%
    12:00 +12°C° 0 mm 2 mps 621 mmHg 51%
    13:00 +12°C° 0 mm 2 mps 621 mmHg 48%
    14:00 +12°C° 0 mm 2 mps 621 mmHg 51%
    15:00 +10°C° 0 mm 2 mps 620 mmHg 54%
    16:00 +10°C° 0 mm 2 mps 620 mmHg 57%
    17:00 +8°C° 0 mm 2 mps 619 mmHg 69%
    18:00 +5°C° 0 mm 2 mps 617 mmHg 80%
    19:00 +3°C° 0 mm 2 mps 616 mmHg 91%
    20:00 +3°C° 0 mm 2 mps 616 mmHg 92%
    21:00 +2°C° 0 mm 2 mps 616 mmHg 92%
    22:00 +2°C° 0 mm 2 mps 617 mmHg 92%
    23:00 +2°C° 0 mm 2 mps 616 mmHg 93%

    1 April, Saturday

    Time Temperature Precipitation Wind Pressure Humidity
    00:00 +2°C° 0 mm 2 mps 616 mmHg 93%
    01:00 +1°C° 0 mm 2 mps 616 mmHg 93%
    02:00 +1°C° 0 mm 2 mps 616 mmHg 93%
    03:00 +1°C° 0 mm 2 mps 615 mmHg 93%
    04:00 -1°C° 0 mm 2 mps 615 mmHg 93%
    05:00 +1°C° 0 mm 2 mps 615 mmHg 91%
    06:00 +1°C° 0 mm 2 mps 615 mmHg 89%
    07:00 +2°C° 0 mm 1 mps 615 mmHg 88%
    08:00 +4°C° 0 mm 1 mps 616 mmHg 81%
    09:00 +5°C° 0 mm 2 mps 616 mmHg 73%
    10:00 +6°C° 0 mm 2 mps 616 mmHg 66%
    11:00 +7°C° 0.1 mm 2 mps 616 mmHg 64%
    12:00 +7°C° 0.1 mm 2 mps 616 mmHg 62%
    13:00 +8°C° 0.1 mm 2 mps 616 mmHg 61%
    14:00 +7°C° 0.4 mm 2 mps 616 mmHg 64%
    15:00 +7°C° 0.4 mm 2 mps 615 mmHg 68%
    16:00 +6°C° 0.4 mm 2 mps 615 mmHg 71%
    17:00 +5°C° 0.6 mm 2 mps 614 mmHg 78%
    18:00 +3°C° 0.6 mm 2 mps 614 mmHg 85%
    19:00 +3°C° 0.6 mm 1 mps 613 mmHg 92%
    20:00 +2°C° 0.3 mm 1 mps 613 mmHg 93%
    21:00 +2°C° 0.3 mm 1 mps 614 mmHg 94%
    22:00 +2°C° 0.3 mm 1 mps 614 mmHg 95%
    23:00 +1°C° 0.1 mm 1 mps 613 mmHg 95%
    Show more